{"data":{"norad_id":65643,"intl_designator":"2025-210X","name":"STARLINK-35062","alt_names":[],"object_type":"PAYLOAD","status":"ACTIVE","operator":null,"country":"US","launch_date":"2025-09-18","launch_site_code":"AFETR","launch_vehicle":null,"mission":null,"orbit_class":"UNKNOWN","rcs_meters":null,"size_class":null,"mass_kg":null,"dimensions":null,"purposes":["comms"],"wikipedia_slug":null,"has_3d_model":false,"image_url":null,"decayed_at":null,"tle_current":{"epoch":"2026-05-24T18:05:03.092064Z","epoch_age_seconds":99430,"freshness":"FRESH","line1":"1 65643U 25210X   26144.75350801  .00010701  00000+0  32740-3 0  9997","line2":"2 65643  53.1592 312.5766 0001069  89.2171 270.8954 15.34398895 39399","mean_motion":15.34398895,"eccentricity":0.0001069,"inclination_deg":53.1592,"raan_deg":312.5766,"arg_perigee_deg":89.2171,"mean_anomaly_deg":270.8954,"bstar":0.0003274,"rev_number":3939,"period_min":93.847825665959,"perigee_km":461.97523832918,"apogee_km":463.43781067471,"semimajor_km":6840.8435245019,"source":"CELESTRAK","updated_at":"2026-05-25T13:38:20.885692Z"}}}